Lapse_Rate
6.6 6.8 6.8 6.8 6.7 6.6 6.2 6.1 6.0 6.0 6.0 6.2 6.3 6.4 6.4 6.3 6.3 6.4 6.1 6.5 6.5 6.3 6.2 6.2 6.3 6.4 6.7 6.4 6.8 6.5 6.7 7.2 8.2 6.7 7.0 6.7 6.8 6.5 6.5 6.3 6.4 6.2 6.4 5.9 6.8
6.6 6.8 6.8 6.9 6.9 6.7 6.3 6.1 6.1 6.0 6.0 6.2 6.3 6.4 6.4 6.3 6.2 6.2 6.0 6.2 6.4 6.2 6.2 5.7 6.2 6.5 6.3 6.3 6.8 5.7 6.5 7.6 7.4 7.3 7.2 7.0 7.0 6.6 6.6 6.5 6.3 6.1 5.8 6.5 6.4
6.6 6.8 6.8 7.0 6.9 6.8 6.4 6.3 6.3 6.2 6.2 6.3 6.3 6.3 6.3 6.2 6.3 6.0 6.1 6.3 6.3 6.2 6.4 6.3 6.5 6.7 6.7 6.8 6.8 6.4 7.4 7.4 7.3 7.3 7.2 7.1 7.1 7.0 7.0 7.1 6.7 6.0 5.9 6.4 6.3
6.6 6.8 6.9 7.0 7.0 6.9 6.6 6.4 6.4 6.4 6.4 6.3 6.2 6.3 6.3 6.3 6.5 6.1 6.1 6.1 6.3 6.4 6.3 6.1 6.2 6.6 7.0 7.6 7.3 7.0 7.3 7.0 6.9 7.1 7.2 7.2 7.2 7.3 7.3 7.0 6.7 6.2 6.3 6.1 5.4
6.7 6.9 6.9 7.0 7.0 7.0 6.7 6.5 6.4 6.5 6.5 6.4 6.4 6.4 6.2 6.1 6.1 6.4 6.2 6.2 6.4 6.4 5.9 6.3 6.5 6.8 6.3 7.5 7.3 6.9 7.4 7.2 6.9 6.9 7.3 7.1 7.1 7.1 6.7 6.5 6.4 6.0 6.4 6.1 5.2
6.8 7.0 7.0 7.0 7.1 7.1 6.9 6.6 6.6 6.6 6.5 6.5 6.4 6.4 6.2 6.3 6.2 6.3 6.3 6.4 6.3 6.1 5.9 6.2 6.2 6.6 7.2 7.4 6.8 7.3 7.2 7.2 6.8 6.9 7.0 7.1 6.9 6.7 6.7 6.3 6.1 6.0 5.8 5.6 5.4
6.8 7.1 7.1 7.2 7.1 7.1 7.0 6.8 6.7 6.7 6.6 6.5 6.3 6.3 6.3 6.3 6.2 6.2 6.3 6.6 6.3 6.0 6.1 6.3 6.4 6.7 7.2 7.4 7.0 7.3 7.9 7.4 7.4 7.3 7.2 7.3 7.5 7.3 6.8 6.4 6.0 5.8 5.8 5.8 5.5
6.8 7.1 7.1 7.2 7.3 7.2 7.0 6.8 6.7 6.6 6.6 6.4 6.3 6.3 6.3 6.5 6.5 6.5 6.6 6.7 6.5 6.4 5.9 6.3 6.8 6.7 7.3 7.1 7.2 7.7 8.3 7.4 7.7 7.5 7.3 7.2 7.4 6.5 7.0 6.8 6.4 5.9 5.8 5.8 5.7
6.7 7.0 7.1 7.2 7.3 7.3 7.1 6.8 6.8 6.6 6.5 6.3 6.3 6.4 6.4 6.5 6.5 6.4 6.1 6.2 6.4 6.0 6.3 6.9 6.8 7.1 7.1 7.2 6.9 8.1 7.4 6.5 7.8 7.6 7.5 7.3 7.3 7.3 7.3 7.0 6.9 6.4 5.9 5.8 5.9
6.7 6.9 7.0 7.1 7.2 7.3 7.2 6.9 6.8 6.6 6.4 6.3 6.4 6.4 6.5 6.3 6.3 6.3 6.2 6.1 6.2 6.6 6.7 6.9 7.1 7.5 8.3 8.7 6.6 7.0 7.6 7.3 8.1 6.5 7.8 7.6 8.1 7.7 6.5 7.3 7.2 6.8 6.4 5.9 5.9
6.7 6.7 6.8 7.0 7.2 7.3 7.2 7.0 6.7 6.6 6.4 6.6 6.8 6.7 6.4 6.1 6.4 6.2 6.2 6.3 6.4 6.8 6.9 7.3 7.3 6.9 7.7 7.3 7.4 7.8 8.2 7.3 8.0 7.8 7.7 8.0 7.9 7.8 8.0 7.9 7.6 7.1 6.7 6.5 6.2
6.6 6.6 6.6 6.8 7.0 7.3 7.2 7.1 6.7 6.5 6.3 6.2 6.3 6.3 6.3 6.2 6.3 6.4 6.3 6.6 6.9 6.7 7.2 7.2 6.6 7.9 7.6 7.6 7.8 8.1 7.6 8.0 8.2 8.1 8.0 8.3 8.5 8.5 8.1 8.2 8.0 7.9 7.4 6.9 6.8
6.6 6.5 6.6 6.7 7.0 7.2 7.3 7.3 6.9 6.6 6.9 6.4 6.3 6.4 6.3 6.5 6.8 6.7 6.6 7.0 7.0 7.2 7.7 6.8 7.5 7.5 7.3 7.9 7.8 7.9 8.5 8.1 8.3 8.3 8.3 7.9 7.9 8.9 8.4 8.6 8.3 8.0 8.1 7.7 7.1
6.6 6.5 6.5 6.7 6.8 7.0 7.0 7.1 6.9 7.0 7.6 6.9 6.7 6.7 6.7 6.9 7.1 7.0 6.8 6.6 7.0 7.4 7.7 8.0 7.9 7.5 7.6 7.9 8.0 7.1 8.0 8.1 8.3 8.5 8.4 8.3 7.3 7.0 8.5 9.1 8.2 7.9 7.9 8.0 7.9
6.6 6.4 6.5 6.7 6.9 6.4 6.8 7.0 7.1 7.1 8.5 7.5 7.2 7.0 7.0 7.0 7.2 6.7 6.5 6.6 6.9 7.9 7.4 6.3 8.0 8.0 8.4 7.9 7.8 8.5 7.9 8.1 8.2 8.6 8.9 9.0 9.6 8.7 8.7 9.1 8.6 8.3 8.1 8.0 8.0
6.5 6.3 6.4 6.5 6.6 6.9 7.0 7.2 7.2 7.6 9.1 7.7 7.3 7.1 7.1 7.4 7.2 6.9 6.8 6.8 7.1 7.7 8.2 8.7 8.1 8.1 8.9 7.9 7.8 7.8 8.0 8.7 9.0 9.5 9.3 8.7 9.1 9.2 9.2 8.7 8.4 8.1 7.9 7.7 7.6
6.5 6.3 6.3 6.4 6.2 6.8 7.1 7.3 7.8 9.3 8.2 7.9 7.7 7.6 7.8 8.4 7.6 7.4 7.5 7.5 8.2 8.1 7.7 9.3 9.1 8.3 7.7 8.5 8.1 8.6 9.4 9.5 9.6 9.9 9.8 9.1 9.2 9.4 8.7 7.9 7.4 7.3 7.3 7.7 7.5
6.4 6.2 6.2 6.4 6.6 6.9 7.2 7.2 8.4 8.8 8.8 8.2 8.2 8.1 9.0 9.3 8.8 9.1 9.1 9.1 8.7 8.5 7.6 9.1 8.7 8.4 7.8 8.1 8.2 8.7 8.8 9.6 9.4 9.7 9.8 9.6 9.7 9.7 9.1 7.8 7.6 7.5 7.0 7.0 7.7
6.3 6.2 6.2 6.4 6.6 6.9 7.1 8.1 9.6 8.7 8.2 8.1 8.3 9.4 9.1 9.3 8.3 9.1 9.4 8.9 8.7 9.2 9.2 9.5 9.5 8.5 8.1 7.9 7.8 8.7 9.2 9.3 9.0 9.7 9.8 9.7 9.7 9.7 9.3 9.0 9.0 7.8 7.7 7.4 6.8
6.3 6.1 6.1 6.5 6.7 7.0 7.1 8.1 8.3 7.9 8.0 8.3 8.9 9.4 9.4 9.4 8.8 9.4 9.4 9.3 8.8 8.0 8.0 9.3 8.9 9.6 8.1 7.8 8.1 8.0 8.3 8.5 9.6 9.7 9.6 9.8 9.7 9.7 9.2 8.6 7.9 7.6 7.6 7.2 6.8
6.2 5.9 6.4 6.6 6.7 6.9 7.8 8.7 8.0 7.7 7.9 8.3 9.6 9.1 9.6 9.5 9.4 9.5 9.7 8.6 8.1 8.1 7.8 8.3 9.2 9.6 8.4 9.0 9.1 8.9 8.6 9.1 9.1 9.2 9.9 9.9 9.8 9.5 8.2 7.8 7.6 7.4 7.4 7.0 6.9
6.1 6.5 6.7 6.7 6.5 7.2 7.9 7.8 7.7 8.0 7.9 8.3 8.4 9.2 9.5 9.1 8.7 9.0 9.5 8.8 7.7 7.8 8.1 9.1 8.4 8.8 9.5 9.5 8.4 8.4 8.3 8.6 9.6 9.6 9.6 9.6 9.5 9.2 8.5 8.0 7.9 7.5 7.2 6.5 6.8
6.2 6.5 6.6 6.7 7.1 7.7 7.9 7.8 7.9 8.2 8.3 8.3 8.5 8.2 8.1 8.1 8.1 8.3 8.5 7.9 7.6 7.7 7.9 7.9 8.2 8.9 9.6 9.6 9.3 7.7 8.2 8.5 8.4 8.7 9.1 9.7 9.6 9.6 9.4 8.3 7.9 7.5 6.9 6.3 6.6
6.3 6.7 6.4 6.8 6.9 7.5 8.1 8.0 8.0 7.8 8.1 8.0 8.1 7.8 7.8 7.8 7.9 7.9 8.0 8.0 7.4 7.4 7.3 7.2 7.6 8.0 8.6 9.1 9.0 8.9 8.6 8.6 9.0 9.1 9.0 9.5 9.6 9.3 8.5 8.0 7.6 7.2 6.7 6.3 6.4
6.1 7.0 6.8 7.0 7.1 7.4 7.9 8.1 8.3 8.1 7.6 7.6 7.6 7.6 7.8 7.8 8.0 8.0 7.9 8.1 7.8 7.3 7.1 7.3 7.7 7.9 8.1 8.2 8.2 8.2 8.1 8.2 8.2 8.3 8.4 8.5 8.5 8.6 8.5 7.1 7.0 7.0 6.5 6.0 6.7
6.0 6.3 6.5 7.1 7.2 7.4 7.5 7.8 7.9 8.2 7.7 7.6 7.4 7.7 7.8 7.7 7.9 8.0 8.0 7.9 7.9 7.5 7.3 7.5 7.6 7.6 7.5 7.8 7.9 7.8 8.0 8.1 8.1 8.2 8.0 8.2 8.3 9.3 8.5 7.5 7.0 6.9 6.4 6.3 6.2
6.2 6.1 6.4 7.1 7.1 7.1 7.4 7.5 7.6 7.4 7.4 7.3 7.5 7.5 7.7 7.6 7.6 7.6 7.5 7.6 7.6 7.6 7.5 7.6 7.6 7.5 7.3 7.8 7.8 7.7 8.2 8.1 8.0 8.2 8.1 8.1 8.1 7.8 7.4 6.6 6.5 6.8 6.4 6.3 6.5
Wind_Speed
12 11 11 10 9 9 9 10 10 10 11 12 13 14 14 15 19 7 8 4 3 10 3 4 7 5 7 5 12 6 2 4 3 10 11 9 10 5 7 11 7 3 5 19 19
12 12 11 11 10 9 9 11 11 11 11 12 13 14 13 14 11 14 10 7 11 12 8 8 2 3 5 6 5 7 5 11 9 4 11 6 9 9 10 9 9 6 17 18 18
13 12 11 11 10 10 9 10 11 11 11 12 13 14 14 15 12 8 8 9 13 12 12 4 6 8 9 9 3 9 5 10 5 6 10 8 10 3 9 6 12 12 17 17 15
14 13 12 11 11 10 10 10 10 11 11 12 13 14 15 7 2 7 9 8 10 10 12 8 10 13 5 4 1 12 6 5 4 7 9 5 8 6 7 9 9 15 18 17 16
14 13 13 12 11 11 10 10 11 11 11 13 12 11 8 10 6 11 12 8 10 12 12 2 4 13 3 7 7 3 10 6 7 5 9 7 3 7 6 4 11 16 17 17 15
14 13 13 12 11 12 10 10 11 11 12 12 11 11 7 9 4 11 13 9 7 9 2 7 2 7 7 4 3 2 7 9 9 7 7 8 7 6 8 7 12 14 16 15 15
14 13 12 12 11 11 11 11 12 12 13 12 10 6 12 7 2 10 8 5 5 6 8 6 6 9 9 4 2 8 5 10 12 9 8 11 3 10 12 10 12 13 13 13 13
13 13 12 11 11 12 12 12 13 13 13 11 9 9 2 3 1 7 9 9 7 8 10 5 6 9 6 6 12 12 12 7 7 10 7 10 14 14 14 11 13 13 12 13 14
13 13 11 11 11 12 13 13 13 12 10 9 7 8 7 3 9 10 10 7 5 9 7 6 11 7 9 13 8 9 8 20 15 10 3 8 6 4 14 9 12 14 14 13 14
13 11 10 10 10 12 12 10 6 8 7 9 10 8 8 11 9 9 9 6 9 8 11 11 10 3 13 5 6 14 7 7 7 3 8 10 10 8 7 14 11 13 14 14 15
13 10 10 9 10 10 10 4 5 6 11 7 11 4 7 8 9 11 9 10 11 11 6 18 5 8 7 9 7 8 1 12 7 1 5 8 10 10 10 9 11 13 15 15 15
12 10 8 8 9 10 8 8 8 8 13 9 2 3 6 11 10 11 10 9 9 2 18 10 7 13 4 6 8 3 19 17 8 1 5 7 10 7 6 10 10 14 16 16 16
11 9 7 7 7 5 11 7 4 7 7 9 9 9 9 8 9 13 13 4 4 7 5 10 9 6 3 3 5 16 7 9 11 9 7 6 16 10 7 2 4 8 10 15 18
10 7 6 4 3 9 11 7 5 5 6 11 10 6 8 15 6 11 11 7 6 9 8 2 6 2 3 2 9 9 7 9 11 11 4 7 6 12 22 9 3 5 7 11 16
8 6 6 9 10 6 6 4 5 4 4 13 11 8 11 8 9 9 4 8 13 7 19 14 6 6 8 8 5 9 7 9 9 14 14 14 7 7 18 11 7 4 1 7 12
7 6 5 6 6 7 5 3 6 8 4 9 9 12 14 13 11 10 9 11 9 7 11 7 4 5 8 0 3 7 13 14 12 13 6 10 8 12 13 12 13 15 12 6 10
7 7 7 8 2 4 3 6 7 7 10 11 15 17 16 13 12 12 11 13 14 6 20 10 13 7 5 9 3 11 16 7 7 7 8 10 7 10 12 11 10 9 11 12 9
7 8 13 7 9 6 6 8 11 6 7 10 14 17 15 13 14 11 10 13 9 21 16 5 4 8 9 8 11 12 10 7 8 9 11 5 1 3 7 7 5 7 5 3 6
8 5 6 6 11 6 7 11 2 5 3 9 8 12 8 11 2 6 10 9 3 9 7 6 3 4 4 5 6 4 8 14 10 14 11 4 6 8 9 7 10 13 11 9 4
4 8 8 5 6 7 8 11 3 5 2 7 11 10 10 12 10 7 10 1 3 4 9 11 8 5 12 4 13 11 12 12 6 7 8 8 11 2 8 12 12 12 16 7 3
6 7 8 7 6 7 10 4 3 4 5 5 6 6 9 8 9 10 2 6 2 1 8 14 11 5 4 13 8 4 12 8 11 6 10 11 7 10 10 10 12 14 13 11 7
9 7 8 7 8 9 10 2 4 9 6 5 7 7 5 4 8 11 5 3 4 7 11 8 10 12 16 3 6 10 14 14 10 11 11 11 14 4 1 8 9 14 10 8 7
7 2 6 8 7 9 4 8 7 6 7 6 6 5 1 8 7 9 7 9 2 9 5 9 7 11 14 14 10 7 11 11 11 15 16 12 11 9 13 13 13 9 13 11 1
4 6 6 8 12 12 10 12 12 5 4 5 6 3 6 9 8 9 7 6 3 9 8 4 15 17 14 18 16 12 13 14 15 11 15 15 18 16 18 16 13 14 11 10 3
5 3 2 9 12 12 4 6 12 9 10 5 6 9 9 9 10 10 12 11 9 11 7 10 16 16 17 18 16 19 17 17 17 17 18 20 21 20 15 9 10 9 10 6 3
5 4 4 9 7 14 7 12 13 10 3 9 10 15 7 9 10 10 6 8 9 8 10 13 16 13 19 20 18 21 21 20 20 19 20 21 20 14 11 13 12 13 10 9 5
5 4 5 5 11 12 14 13 13 13 4 10 12 11 8 9 9 6 12 13 15 13 13 15 14 14 19 20 19 17 16 16 13 11 11 15 17 16 12 12 12 11 9 6 6
Wind_Direction
355 354 353 349 345 341 339 327 319 320 322 324 321 319 322 317 301 232 259 77 115 156 235 227 229 229 223 251 241 239 267 253 84 46 116 144 122 96 88 122 154 64 148 142 148
356 353 351 345 342 339 335 324 321 323 323 323 318 317 317 323 273 253 110 125 148 169 218 252 153 229 215 241 226 152 273 90 48 14 112 158 119 112 136 157 133 143 98 127 158
352 350 349 341 337 334 330 322 320 319 320 317 314 315 315 309 264 89 135 145 173 194 260 296 267 247 235 234 256 104 81 62 51 86 122 130 105 172 96 219 125 144 140 152 163
347 347 344 339 332 328 327 323 317 314 313 312 314 313 315 255 356 88 150 157 189 244 267 232 227 237 237 157 289 350 80 94 150 145 138 147 124 118 63 51 111 142 151 161 171
345 346 340 335 330 323 325 319 312 306 309 310 309 314 282 226 61 120 150 169 199 232 266 313 310 309 297 108 227 69 121 147 134 172 124 127 188 88 116 87 120 143 160 167 178
343 344 338 332 327 319 319 313 304 302 303 301 301 306 248 248 81 127 176 179 227 238 239 230 289 316 307 347 339 97 201 138 156 158 154 189 169 222 125 154 136 157 172 177 180
342 340 335 329 322 314 312 307 299 298 297 296 301 284 262 62 79 155 166 189 205 255 300 36 329 292 337 213 176 251 188 163 170 171 173 246 231 197 131 167 159 173 179 183 186
341 336 332 324 317 311 308 302 293 290 289 282 282 259 360 63 190 179 187 198 224 234 265 305 291 273 225 266 229 236 186 44 286 189 153 253 205 257 141 175 173 184 184 190 188
337 331 328 321 314 308 304 298 285 279 261 266 247 235 126 141 192 195 205 206 239 251 240 287 252 271 221 243 271 294 128 247 219 198 168 240 316 141 151 191 190 180 189 195 194
333 329 324 314 310 305 298 279 297 268 229 229 266 259 178 201 173 186 208 245 237 255 229 228 239 324 303 299 177 231 49 281 269 291 198 242 268 282 170 181 215 190 190 196 202
330 329 320 311 306 305 299 191 192 193 206 258 187 257 145 128 163 206 196 220 238 245 177 248 21 253 269 5 348 14 321 21 290 142 289 262 259 261 204 191 206 199 190 198 205
329 324 315 306 302 302 279 246 37 359 186 221 313 255 140 168 176 178 198 229 213 143 265 349 177 252 27 14 305 258 36 278 59 70 304 294 321 275 219 205 217 209 194 196 201
327 320 308 299 300 258 237 288 319 317 239 166 195 182 188 218 184 169 217 216 267 275 211 201 59 64 326 232 70 325 11 4 331 312 261 284 354 153 132 293 202 248 239 202 199
320 310 293 295 294 194 225 210 258 315 223 149 190 191 185 227 172 150 225 286 191 303 326 312 78 328 282 243 307 165 5 321 329 305 174 236 169 25 322 137 162 244 253 251 212
311 292 272 243 316 214 65 264 278 237 268 156 143 121 165 194 149 189 180 222 257 140 102 268 161 230 259 34 331 28 325 299 291 280 93 266 311 180 218 36 54 73 239 259 252
294 266 251 216 235 297 297 190 217 233 143 156 144 182 174 221 173 141 200 238 301 255 215 223 156 250 18 341 288 313 273 253 239 247 120 56 339 92 56 36 27 16 360 2 305
273 242 233 310 48 356 264 215 228 264 146 150 174 166 200 166 155 190 200 208 237 186 323 210 188 130 279 269 219 236 286 268 245 220 66 48 313 19 54 52 42 20 9 0 341
248 212 217 266 315 295 251 232 259 63 178 160 159 184 193 176 172 198 198 244 208 125 226 207 273 214 148 295 344 306 344 305 313 323 346 264 278 38 82 115 106 27 56 15 345
159 198 230 203 221 257 252 233 68 181 91 179 185 190 190 171 203 224 226 272 249 184 296 312 85 95 267 266 256 305 260 1 306 267 288 320 23 300 103 180 19 8 348 5 48
239 194 180 148 193 253 252 273 92 9 336 214 198 231 210 184 193 213 201 80 308 319 309 308 309 293 115 274 246 260 325 296 259 286 293 326 312 314 3 347 5 333 328 13 33
241 213 124 174 233 242 239 124 153 151 235 241 259 182 268 185 205 228 184 114 278 232 278 294 291 266 197 238 266 217 238 202 256 306 288 283 303 13 29 350 324 320 332 12 350
245 220 146 186 228 231 247 164 0 152 191 223 301 310 253 220 252 245 256 179 82 295 291 306 309 303 300 287 240 282 285 293 292 293 289 309 301 45 210 313 327 323 16 7 358
244 136 163 213 233 202 165 193 231 194 197 207 216 263 235 274 260 270 268 87 351 275 329 311 263 279 271 242 181 245 272 268 282 294 279 278 283 345 350 335 329 349 357 335 17
274 180 157 212 267 282 187 211 197 243 258 285 317 293 246 251 232 271 238 236 179 275 51 309 270 273 281 307 318 295 286 281 275 267 285 289 303 315 323 324 345 350 345 337 136
249 271 119 195 223 240 270 234 229 178 240 225 239 259 264 260 251 241 249 263 190 166 235 248 267 283 289 294 290 288 281 281 279 283 285 298 302 308 323 354 316 335 357 328 233
310 316 187 285 205 215 185 242 255 249 216 226 233 285 236 265 276 272 293 273 276 171 231 256 263 267 274 276 274 274 273 273 272 273 276 285 288 298 357 350 351 341 344 306 220
358 259 277 189 222 223 238 217 254 268 270 269 299 274 248 271 311 308 307 297 286 281 274 281 288 288 279 291 293 278 266 269 285 287 305 305 321 333 354 359 336 312 313 313 316